,,,PA_Meas_PMT16A,,PR_Meas_QMR101_102,,RH_Meas_QMH101,,SR_Meas_QMS101,,TA_Meas_QMH101,,GenWind,,GenWind,
date,time,status,PA,status,PR,status,RH,status,SR,status,TA,status,DirAvg,status,SpdAvg,
2009-09-29, 00:00:05,VALID,998.259,VALID,0,VALID,90.2355,VALID,0,VALID,22.5111,VALID,3,VALID,0.351953,
2009-09-29, 00:01:05,VALID,998.27,VALID,0,VALID,90.1897,VALID,0,VALID,22.4721,VALID,3,VALID,0.337891,
2009-09-29, 00:02:05,VALID,998.271,VALID,0,VALID,90.4034,VALID,0,VALID,22.5128,VALID,3,VALID,0.328125,
2009-09-29, 00:03:05,VALID,998.243,VALID,0,VALID,90.5102,VALID,0,VALID,22.5111,VALID,3,VALID,0,
2009-09-29, 00:04:05,VALID,998.259,VALID,0,VALID,90.5178,VALID,0,VALID,22.5323,VALID,3,VALID,0,
2009-09-29, 00:05:05,VALID,998.197,VALID,0,VALID,90.6933,VALID,0,VALID,22.5696,VALID,18,VALID,0.750781,
2009-09-29, 00:06:05,VALID,998.153,VALID,0,VALID,90.5254,VALID,0,VALID,22.5909,VALID,18,VALID,1.02539,
2009-09-29, 00:07:05,VALID,998.176,VALID,0,VALID,90.472,VALID,0,VALID,22.5909,VALID,18,VALID,0.775781,
2009-09-29, 00:08:05,VALID,998.189,VALID,0,VALID,90.3194,VALID,0,VALID,22.5909,VALID,18,VALID,0.590234,
2009-09-29, 00:09:05,VALID,998.225,VALID,0,VALID,90.4339,VALID,0,VALID,22.5714,VALID,18,VALID,0.644141,
2009-09-29, 00:10:05,VALID,998.196,VALID,0,VALID,90.1668,VALID,0,VALID,22.5519,VALID,19,VALID,0.772266,
2009-09-29, 00:11:05,VALID,998.176,VALID,0,VALID,90.5026,VALID,0,VALID,22.5306,VALID,25,VALID,0.921484,
2009-09-29, 00:12:05,VALID,998.176,VALID,0,VALID,90.4263,VALID,0,VALID,22.5501,VALID,28,VALID,1.13125,
2009-09-29, 00:13:05,VALID,998.163,VALID,0,VALID,90.1211,VALID,0,VALID,22.5501,VALID,47,VALID,1.32422,
2009-09-29, 00:14:05,VALID,998.134,VALID,0,VALID,90.2203,VALID,0,VALID,22.5696,VALID,55,VALID,1.04375,
2009-09-29, 00:15:05,VALID,998.128,VALID,0,VALID,89.9761,VALID,0,VALID,22.5519,VALID,58,VALID,0.840625,
2009-09-29, 00:16:05,VALID,998.112,VALID,0,VALID,90.0143,VALID,0,VALID,22.5323,VALID,59,VALID,0.743359,
2009-09-29, 00:17:05,VALID,998.094,VALID,0,VALID,90.0066,VALID,0,VALID,22.4933,VALID,59,VALID,0.647656,
2009-09-29, 00:18:05,VALID,998.072,VALID,0,VALID,90.1668,VALID,0,VALID,22.4738,VALID,60,VALID,0.759766,
2009-09-29, 00:19:05,VALID,998.081,VALID,0,VALID,90.2966,VALID,0,VALID,22.4543,VALID,60,VALID,0.416797,
2009-09-29, 00:20:05,VALID,998.058,VALID,0,VALID,90.266,VALID,0,VALID,22.4348,VALID,60,VALID,0.0976563,
2009-09-29, 00:21:05,VALID,998.059,VALID,0,VALID,90.3271,VALID,0,VALID,22.3941,VALID,60,VALID,0.312109,
2009-09-29, 00:22:05,VALID,998.063,VALID,0,VALID,90.4644,VALID,0,VALID,22.3746,VALID,59,VALID,0.553516,
2009-09-29, 00:23:05,VALID,998.021,VALID,0,VALID,90.4949,VALID,0,VALID,22.3958,VALID,56,VALID,0.513281,
2009-09-29, 00:24:05,VALID,998.029,VALID,0,VALID,90.6857,VALID,0,VALID,22.3958,VALID,46,VALID,0.53125,
2009-09-29, 00:25:05,VALID,998.026,VALID,0,VALID,90.7085,VALID,0,VALID,22.3551,VALID,46,VALID,0.370703,
2009-09-29, 00:26:05,VALID,997.997,VALID,0,VALID,90.5788,VALID,0,VALID,22.3746,VALID,46,VALID,0.671875,
2009-09-29, 00:27:05,VALID,997.997,VALID,0,VALID,90.8001,VALID,0,VALID,22.3551,VALID,47,VALID,0.894922,
2009-09-29, 00:28:05,VALID,997.98,VALID,0,VALID,90.8383,VALID,0,VALID,22.3551,VALID,47,VALID,0.905859,
2009-09-29, 00:29:05,VALID,997.983,VALID,0,VALID,90.9069,VALID,0,VALID,22.3941,VALID,47,VALID,0.761719,
2009-09-29, 00:30:05,VALID,997.971,VALID,0,VALID,90.6857,VALID,0,VALID,22.3941,VALID,47,VALID,0.736719,
2009-09-29, 00:31:05,VALID,997.95,VALID,0,VALID,90.4263,VALID,0,VALID,22.4136,VALID,47,VALID,0.695703,
2009-09-29, 00:32:05,VALID,997.897,VALID,0,VALID,90.4339,VALID,0,VALID,22.3958,VALID,47,VALID,0.612109,
2009-09-29, 00:33:05,VALID,997.894,VALID,0,VALID,90.3652,VALID,0,VALID,22.3746,VALID,47,VALID,0.83125,
2009-09-29, 00:34:05,VALID,997.873,VALID,0,VALID,90.4339,VALID,0,VALID,22.3763,VALID,47,VALID,0.689062,
2009-09-29, 00:35:05,VALID,997.837,VALID,0,VALID,90.7238,VALID,0,VALID,22.3763,VALID,48,VALID,0.827734,
2009-09-29, 00:36:05,VALID,997.835,VALID,0,VALID,90.7314,VALID,0,VALID,22.3746,VALID,48,VALID,0.816406,
2009-09-29, 00:37:05,VALID,997.83,VALID,0,VALID,90.6475,VALID,0,VALID,22.3958,VALID,48,VALID,0.828516,
2009-09-29, 00:38:05,VALID,997.831,VALID,0,VALID,90.4949,VALID,0,VALID,22.3958,VALID,48,VALID,0.766016,
2009-09-29, 00:39:05,VALID,997.796,VALID,0,VALID,90.205,VALID,0,VALID,22.3763,VALID,48,VALID,0.644922,
2009-09-29, 00:40:05,VALID,997.759,VALID,0,VALID,90.3118,VALID,0,VALID,22.3373,VALID,49,VALID,0.714844,
2009-09-29, 00:41:05,VALID,997.731,VALID,0,VALID,90.4491,VALID,0,VALID,22.3178,VALID,50,VALID,0.735547,
2009-09-29, 00:42:05,VALID,997.723,VALID,0,VALID,90.7162,VALID,0,VALID,22.3373,VALID,39,VALID,0.904297,
2009-09-29, 00:43:05,VALID,997.737,VALID,0,VALID,90.5254,VALID,0,VALID,22.3178,VALID,31,VALID,0.843359,
2009-09-29, 00:44:05,VALID,997.714,VALID,0,VALID,90.6017,VALID,0,VALID,22.3161,VALID,15,VALID,0.90625,
2009-09-29, 00:45:05,VALID,997.736,VALID,0,VALID,90.4263,VALID,0,VALID,22.2754,VALID,356,VALID,0.716016,
2009-09-29, 00:46:05,VALID,997.729,VALID,0,VALID,90.411,VALID,0,VALID,22.2364,VALID,350,VALID,0.8,
2009-09-29, 00:47:05,VALID,997.711,VALID,0,VALID,90.617,VALID,0,VALID,22.2559,VALID,350,VALID,0.933594,
2009-09-29, 00:48:05,VALID,997.697,VALID,0,VALID,90.6628,VALID,0.112286,VALID,22.2771,VALID,357,VALID,1.12422,
2009-09-29, 00:49:05,VALID,997.712,VALID,0,VALID,90.8764,VALID,0,VALID,22.3144,VALID,358,VALID,0.892187,
2009-09-29, 00:50:05,VALID,997.726,VALID,0,VALID,90.5102,VALID,0,VALID,22.3746,VALID,358,VALID,0.391406,
2009-09-29, 00:51:05,VALID,997.68,VALID,0,VALID,90.205,VALID,0,VALID,22.3746,VALID,358,VALID,0.588281,
2009-09-29, 00:52:05,VALID,997.646,VALID,0,VALID,90.2889,VALID,0,VALID,22.3339,VALID,358,VALID,0.560156,
2009-09-29, 00:53:05,VALID,997.609,VALID,0,VALID,90.1745,VALID,0,VALID,22.3551,VALID,358,VALID,0.676953,
2009-09-29, 00:54:05,VALID,997.632,VALID,0,VALID,90.1668,VALID,0,VALID,22.3161,VALID,360,VALID,0.49375,
2009-09-29, 00:55:05,VALID,997.618,VALID,0,VALID,90.472,VALID,0,VALID,22.2754,VALID,36,VALID,0.828906,
2009-09-29, 00:56:05,VALID,997.623,VALID,0,VALID,91.7004,VALID,0,VALID,22.4721,VALID,67,VALID,1.3418,
2009-09-29, 00:57:05,VALID,997.63,VALID,0,VALID,90.7925,VALID,0.112286,VALID,22.6264,VALID,80,VALID,1.00469,
2009-09-29, 00:58:05,VALID,997.624,VALID,0,VALID,89.7396,VALID,0.112286,VALID,22.7825,VALID,34,VALID,0.539453,
2009-09-29, 00:59:05,VALID,997.61,VALID,0,VALID,88.6714,VALID,0,VALID,22.8427,VALID,51,VALID,0.540625,
2009-09-29, 01:00:05,VALID,997.627,VALID,0,VALID,88.3205,VALID,0,VALID,22.8835,VALID,41,VALID,0.103125,
2009-09-29, 01:01:05,VALID,997.611,VALID,0,VALID,88.1755,VALID,0,VALID,22.864,VALID,41,VALID,0,
2009-09-29, 01:02:05,VALID,997.632,VALID,0,VALID,88.0534,VALID,0,VALID,22.8232,VALID,41,VALID,0,
2009-09-29, 01:03:05,VALID,997.611,VALID,0,VALID,88.1603,VALID,0,VALID,22.8037,VALID,41,VALID,0,
2009-09-29, 01:04:05,VALID,997.599,VALID,0,VALID,88.4273,VALID,0,VALID,22.8037,VALID,41,VALID,0.341797,
2009-09-29, 01:05:05,VALID,997.607,VALID,0,VALID,88.1755,VALID,0,VALID,22.7842,VALID,41,VALID,0.336328,
2009-09-29, 01:06:05,VALID,997.583,VALID,0,VALID,88.496,VALID,0,VALID,22.7842,VALID,41,VALID,0.428906,
2009-09-29, 01:07:05,VALID,997.554,VALID,0,VALID,88.6638,VALID,0,VALID,22.7842,VALID,41,VALID,0.374219,
2009-09-29, 01:08:05,VALID,997.593,VALID,0,VALID,88.1374,VALID,0,VALID,22.7842,VALID,41,VALID,0.240625,
2009-09-29, 01:09:05,VALID,997.556,VALID,0,VALID,88.1221,VALID,0,VALID,22.7452,VALID,41,VALID,0.331641,
2009-09-29, 01:10:05,VALID,997.536,VALID,0,VALID,88.2976,VALID,0,VALID,22.7062,VALID,37,VALID,0.433203,
2009-09-29, 01:11:05,VALID,997.541,VALID,0,VALID,88.5189,VALID,0,VALID,22.6672,VALID,33,VALID,0.270312,
2009-09-29, 01:12:05,VALID,997.536,VALID,0,VALID,88.4349,VALID,0,VALID,22.6672,VALID,27,VALID,0.567969,
2009-09-29, 01:13:05,VALID,997.507,VALID,0,VALID,88.4273,VALID,0,VALID,22.6282,VALID,19,VALID,0.586328,
2009-09-29, 01:14:05,VALID,997.49,VALID,0,VALID,88.3357,VALID,0,VALID,22.6689,VALID,10,VALID,0.791406,
2009-09-29, 01:15:05,VALID,997.481,VALID,0,VALID,88.2213,VALID,0,VALID,22.6299,VALID,10,VALID,0.452734,
2009-09-29, 01:16:05,VALID,997.444,VALID,0,VALID,88.1832,VALID,0,VALID,22.5696,VALID,10,VALID,0.366797,
2009-09-29, 01:17:05,VALID,997.421,VALID,0,VALID,88.6333,VALID,0,VALID,22.5501,VALID,10,VALID,0.586328,
2009-09-29, 01:18:05,VALID,997.435,VALID,0,VALID,88.9614,VALID,0,VALID,22.5909,VALID,17,VALID,0.772656,
2009-09-29, 01:19:05,VALID,997.457,VALID,0,VALID,88.6486,VALID,0,VALID,22.5892,VALID,17,VALID,0.503906,
2009-09-29, 01:20:05,VALID,997.443,VALID,0,VALID,88.3586,VALID,0,VALID,22.5714,VALID,17,VALID,0.723437,
2009-09-29, 01:21:05,VALID,997.471,VALID,0,VALID,88.7172,VALID,0,VALID,22.5306,VALID,18,VALID,0.663672,
2009-09-29, 01:22:05,VALID,997.492,VALID,0,VALID,88.3052,VALID,0,VALID,22.4916,VALID,18,VALID,0.107031,
2009-09-29, 01:23:05,VALID,997.461,VALID,0,VALID,88.618,VALID,0,VALID,22.4721,VALID,18,VALID,0.298438,
2009-09-29, 01:24:05,VALID,997.427,VALID,0,VALID,88.9232,VALID,0,VALID,22.5128,VALID,357,VALID,0.741406,
2009-09-29, 01:25:05,VALID,997.458,VALID,0,VALID,88.7401,VALID,0,VALID,22.5323,VALID,357,VALID,0.526563,
2009-09-29, 01:26:05,VALID,997.467,VALID,0,VALID,88.8469,VALID,0,VALID,22.5128,VALID,357,VALID,0.444922,
2009-09-29, 01:27:05,VALID,997.47,VALID,0,VALID,89.1903,VALID,0,VALID,22.5128,VALID,357,VALID,0.359766,
2009-09-29, 01:28:05,VALID,997.49,VALID,0,VALID,89.1826,VALID,0,VALID,22.5128,VALID,357,VALID,0.3625,
2009-09-29, 01:29:05,VALID,997.488,VALID,0,VALID,89.4649,VALID,0,VALID,22.5306,VALID,351,VALID,0.41875,
2009-09-29, 01:30:05,VALID,997.474,VALID,0,VALID,89.6328,VALID,0,VALID,22.5696,VALID,338,VALID,0.314063,
2009-09-29, 01:31:05,VALID,997.456,VALID,0,VALID,89.8922,VALID,0,VALID,22.6477,VALID,338,VALID,0.247656,
2009-09-29, 01:32:05,VALID,997.468,VALID,0,VALID,89.6404,VALID,0,VALID,22.7079,VALID,338,VALID,0.228516,
2009-09-29, 01:33:05,VALID,997.439,VALID,0,VALID,89.4954,VALID,0,VALID,22.7257,VALID,338,VALID,0.233984,
2009-09-29, 01:34:05,VALID,997.438,VALID,0,VALID,89.381,VALID,0,VALID,22.786,VALID,338,VALID,0,
2009-09-29, 01:35:05,VALID,997.484,VALID,0,VALID,89.1521,VALID,0,VALID,22.786,VALID,338,VALID,0.224609,
2009-09-29, 01:36:05,VALID,997.503,VALID,0,VALID,88.8317,VALID,0,VALID,22.7664,VALID,338,VALID,0.260938,
2009-09-29, 01:37:05,VALID,997.518,VALID,0,VALID,88.7477,VALID,0,VALID,22.6867,VALID,338,VALID,0.404297,
2009-09-29, 01:38:05,VALID,997.531,VALID,0,VALID,88.7401,VALID,0,VALID,22.6282,VALID,342,VALID,0.835156,
2009-09-29, 01:39:05,VALID,997.505,VALID,0,VALID,89.0606,VALID,0,VALID,22.5892,VALID,351,VALID,0.779688,
2009-09-29, 01:40:05,VALID,997.549,VALID,0,VALID,89.6709,VALID,0,VALID,22.6104,VALID,351,VALID,0.702734,
2009-09-29, 01:41:05,VALID,997.583,VALID,0,VALID,89.0987,VALID,0,VALID,22.5501,VALID,351,VALID,0.325,
2009-09-29, 01:42:05,VALID,997.585,VALID,0,VALID,89.5717,VALID,0,VALID,22.4916,VALID,351,VALID,0.261719,
2009-09-29, 01:43:05,VALID,997.539,VALID,0,VALID,89.5946,VALID,0,VALID,22.4916,VALID,351,VALID,0.5625,
2009-09-29, 01:44:05,VALID,997.537,VALID,0,VALID,89.854,VALID,0,VALID,22.4738,VALID,351,VALID,0.552344,
2009-09-29, 01:45:05,VALID,997.511,VALID,0,VALID,90.144,VALID,0,VALID,22.4738,VALID,351,VALID,0.445703,
2009-09-29, 01:46:05,VALID,997.482,VALID,0,VALID,90.4263,VALID,0,VALID,22.4721,VALID,351,VALID,0.535156,
2009-09-29, 01:47:05,VALID,997.505,VALID,0,VALID,90.5102,VALID,0,VALID,22.5128,VALID,351,VALID,0.598437,
2009-09-29, 01:48:05,VALID,997.534,VALID,0,VALID,89.9227,VALID,0,VALID,22.4526,VALID,351,VALID,0.336719,
2009-09-29, 01:49:05,VALID,997.486,VALID,0,VALID,89.442,VALID,0,VALID,22.3958,VALID,351,VALID,0.0550781,
2009-09-29, 01:50:05,VALID,997.503,VALID,0,VALID,89.9609,VALID,0,VALID,22.3568,VALID,351,VALID,0.403516,
2009-09-29, 01:51:05,VALID,997.491,VALID,0,VALID,90.3728,VALID,0,VALID,22.3178,VALID,351,VALID,0.487109,
2009-09-29, 01:52:05,VALID,997.464,VALID,0,VALID,91.0824,VALID,0,VALID,22.3763,VALID,3,VALID,0.575,
2009-09-29, 01:53:05,VALID,997.445,VALID,0,VALID,90.1592,VALID,0,VALID,22.3568,VALID,44,VALID,0.785156,
2009-09-29, 01:54:05,VALID,997.437,VALID,0,VALID,89.2971,VALID,0,VALID,22.3373,VALID,54,VALID,0.983203,
2009-09-29, 01:55:05,VALID,997.43,VALID,0,VALID,88.5723,VALID,0,VALID,22.2576,VALID,54,VALID,1.11172,
2009-09-29, 01:56:05,VALID,997.419,VALID,0,VALID,88.1526,VALID,0,VALID,22.2397,VALID,53,VALID,0.336328,
2009-09-29, 01:57:05,VALID,997.424,VALID,0,VALID,88.0534,VALID,0,VALID,22.1812,VALID,53,VALID,0.221484,
2009-09-29, 01:58:05,VALID,997.444,VALID,0,VALID,87.8932,VALID,0,VALID,22.1015,VALID,52,VALID,0.448047,
2009-09-29, 01:59:05,VALID,997.44,VALID,0,VALID,87.9543,VALID,0,VALID,22.0642,VALID,37,VALID,0.369141,
2009-09-29, 02:00:05,VALID,997.439,VALID,0,VALID,87.9695,VALID,0,VALID,22.0057,VALID,35,VALID,0.483203,
2009-09-29, 02:01:05,VALID,997.474,VALID,0,VALID,88.1526,VALID,0,VALID,21.8887,VALID,26,VALID,0.707422,
2009-09-29, 02:02:05,VALID,997.466,VALID,0,VALID,88.7325,VALID,0,VALID,21.8692,VALID,26,VALID,0.969141,
2009-09-29, 02:03:05,VALID,997.487,VALID,0,VALID,89.0606,VALID,0,VALID,21.8496,VALID,28,VALID,1.24531,
2009-09-29, 02:04:05,VALID,997.44,VALID,0,VALID,89.0529,VALID,0,VALID,21.8301,VALID,32,VALID,1.74023,
2009-09-29, 02:05:05,VALID,997.453,VALID,0,VALID,89.2513,VALID,0,VALID,21.8301,VALID,31,VALID,1.82578,
2009-09-29, 02:06:05,VALID,997.469,VALID,0,VALID,89.2971,VALID,0,VALID,21.8106,VALID,37,VALID,1.3125,
2009-09-29, 02:07:05,VALID,997.48,VALID,0,VALID,89.32,VALID,0,VALID,21.7911,VALID,37,VALID,0.432422,
2009-09-29, 02:08:05,VALID,997.458,VALID,0,VALID,89.6557,VALID,0,VALID,21.7716,VALID,354,VALID,0.537891,
2009-09-29, 02:09:05,VALID,997.459,VALID,0,VALID,90.3042,VALID,0,VALID,21.7895,VALID,360,VALID,0.608594,
2009-09-29, 02:10:05,VALID,997.467,VALID,0,VALID,90.35,VALID,0,VALID,21.809,VALID,356,VALID,0.583203,
2009-09-29, 02:11:05,VALID,997.456,VALID,0,VALID,90.4491,VALID,0,VALID,21.809,VALID,12,VALID,0.768359,
2009-09-29, 02:12:05,VALID,997.455,VALID,0,VALID,90.4644,VALID,0,VALID,21.809,VALID,12,VALID,0.560547,
2009-09-29, 02:13:05,VALID,997.472,VALID,0,VALID,90.5102,VALID,0,VALID,21.8301,VALID,12,VALID,0.78125,
2009-09-29, 02:14:05,VALID,997.452,VALID,0,VALID,90.7467,VALID,0,VALID,21.8285,VALID,11,VALID,0.975391,
2009-09-29, 02:15:05,VALID,997.454,VALID,0,VALID,90.8306,VALID,0,VALID,21.848,VALID,20,VALID,0.862109,
2009-09-29, 02:16:05,VALID,997.411,VALID,0,VALID,90.8688,VALID,0,VALID,21.848,VALID,33,VALID,0.947656,
2009-09-29, 02:17:05,VALID,997.399,VALID,0,VALID,90.7009,VALID,0,VALID,21.8692,VALID,30,VALID,0.975781,
2009-09-29, 02:18:05,VALID,997.413,VALID,0,VALID,90.8154,VALID,0,VALID,21.8285,VALID,30,VALID,1.12969,
2009-09-29, 02:19:05,VALID,997.383,VALID,0,VALID,90.9374,VALID,0,VALID,21.8285,VALID,29,VALID,1.06562,
2009-09-29, 02:20:05,VALID,997.379,VALID,0,VALID,90.6933,VALID,0,VALID,21.8106,VALID,25,VALID,1.00078,
2009-09-29, 02:21:05,VALID,997.361,VALID,0,VALID,90.6704,VALID,0,VALID,21.7716,VALID,26,VALID,0.766797,
2009-09-29, 02:22:05,VALID,997.338,VALID,0,VALID,90.7849,VALID,0,VALID,21.7326,VALID,32,VALID,1.00117,
2009-09-29, 02:23:05,VALID,997.322,VALID,0,VALID,90.8001,VALID,0,VALID,21.692,VALID,48,VALID,1.18906,
2009-09-29, 02:24:05,VALID,997.338,VALID,0,VALID,91.3647,VALID,0,VALID,21.692,VALID,48,VALID,1.37969,
2009-09-29, 02:25:05,VALID,997.302,VALID,0,VALID,91.3647,VALID,0,VALID,21.7131,VALID,58,VALID,1.14453,
2009-09-29, 02:26:05,VALID,997.287,VALID,0,VALID,91.5936,VALID,0,VALID,21.692,VALID,59,VALID,1.1875,
2009-09-29, 02:27:05,VALID,997.291,VALID,0,VALID,91.4028,VALID,0,VALID,21.7115,VALID,52,VALID,0.819922,
2009-09-29, 02:28:05,VALID,997.293,VALID,0,VALID,91.3418,VALID,0,VALID,21.7131,VALID,53,VALID,0.586719,
2009-09-29, 02:29:05,VALID,997.273,VALID,0,VALID,91.4181,VALID,0,VALID,21.7131,VALID,49,VALID,0.690625,
2009-09-29, 02:30:05,VALID,997.292,VALID,0,VALID,91.4639,VALID,0,VALID,21.6741,VALID,48,VALID,0.657422,
2009-09-29, 02:31:05,VALID,997.26,VALID,0,VALID,91.5402,VALID,0,VALID,21.6741,VALID,48,VALID,0.697656,
2009-09-29, 02:32:05,VALID,997.261,VALID,0,VALID,91.5173,VALID,0,VALID,21.6741,VALID,48,VALID,0.599609,
2009-09-29, 02:33:05,VALID,997.272,VALID,0,VALID,91.5097,VALID,0,VALID,21.6546,VALID,48,VALID,0.709375,
2009-09-29, 02:34:05,VALID,997.24,VALID,0,VALID,91.647,VALID,0,VALID,21.653,VALID,47,VALID,0.751953,
2009-09-29, 02:35:05,VALID,997.206,VALID,0,VALID,91.5249,VALID,0,VALID,21.6546,VALID,40,VALID,0.541797,
2009-09-29, 02:36:05,VALID,997.206,VALID,0,VALID,91.3342,VALID,0,VALID,21.6156,VALID,39,VALID,0.346875,
2009-09-29, 02:37:05,VALID,997.208,VALID,0,VALID,91.4639,VALID,0,VALID,21.5555,VALID,38,VALID,0.230859,
2009-09-29, 02:38:05,VALID,997.14,VALID,0,VALID,91.7538,VALID,0,VALID,21.575,VALID,38,VALID,0.417578,
2009-09-29, 02:39:05,VALID,997.145,VALID,0,VALID,91.8377,VALID,0,VALID,21.5961,VALID,15,VALID,0.539844,
2009-09-29, 02:40:04,VALID,997.136,VALID,0,VALID,91.8454,VALID,0,VALID,21.575,VALID,1,VALID,0.461719,
2009-09-29, 02:41:04,VALID,997.14,VALID,0,VALID,91.8148,VALID,0,VALID,21.575,VALID,357,VALID,0.201953,
2009-09-29, 02:42:04,VALID,997.148,VALID,0,VALID,91.8301,VALID,0,VALID,21.575,VALID,357,VALID,0.432422,
2009-09-29, 02:43:04,VALID,997.125,VALID,0,VALID,91.8683,VALID,0,VALID,21.575,VALID,2,VALID,0.950781,
2009-09-29, 02:44:04,VALID,997.12,VALID,0,VALID,91.6699,VALID,0,VALID,21.5961,VALID,3,VALID,0.622656,
2009-09-29, 02:45:04,VALID,997.123,VALID,0,VALID,91.502,VALID,0,VALID,21.536,VALID,3,VALID,0.0324219,
2009-09-29, 02:46:04,VALID,997.078,VALID,0,VALID,91.792,VALID,0,VALID,21.536,VALID,6,VALID,0.780859,
2009-09-29, 02:47:04,VALID,997.086,VALID,0,VALID,91.8683,VALID,0,VALID,21.5555,VALID,17,VALID,1.11641,
2009-09-29, 02:48:04,VALID,997.1,VALID,0,VALID,91.9064,VALID,0,VALID,21.614,VALID,41,VALID,0.854297,
2009-09-29, 02:49:04,VALID,997.12,VALID,0,VALID,92.1048,VALID,0,VALID,21.6335,VALID,56,VALID,0.796875,
2009-09-29, 02:50:04,VALID,997.138,VALID,0,VALID,91.7996,VALID,0,VALID,21.7131,VALID,29,VALID,0.887109,
2009-09-29, 02:51:04,VALID,997.137,VALID,0,VALID,91.6775,VALID,0,VALID,21.692,VALID,29,VALID,0.872266,
2009-09-29, 02:52:04,VALID,997.151,VALID,0,VALID,91.6241,VALID,0,VALID,21.7521,VALID,23,VALID,0.591406,
2009-09-29, 02:53:04,VALID,997.181,VALID,0,VALID,91.2426,VALID,0,VALID,21.692,VALID,20,VALID,0.6625,
2009-09-29, 02:54:04,VALID,997.195,VALID,0,VALID,91.2274,VALID,0,VALID,21.6741,VALID,16,VALID,0.405469,
2009-09-29, 02:55:04,VALID,997.172,VALID,0,VALID,91.3113,VALID,0,VALID,21.6741,VALID,3,VALID,0.448438,
2009-09-29, 02:56:04,VALID,997.166,VALID,0,VALID,91.3647,VALID,0,VALID,21.6741,VALID,3,VALID,0.396875,
2009-09-29, 02:57:04,VALID,997.152,VALID,0,VALID,91.3113,VALID,0,VALID,21.6741,VALID,3,VALID,0.395703,
2009-09-29, 02:58:04,VALID,997.103,VALID,0,VALID,91.2579,VALID,0,VALID,21.6546,VALID,3,VALID,0.453906,
2009-09-29, 02:59:04,VALID,997.111,VALID,0,VALID,91.0748,VALID,0,VALID,21.614,VALID,3,VALID,0.272266,
2009-09-29, 03:00:04,VALID,997.072,VALID,0,VALID,90.9527,VALID,0,VALID,21.5961,VALID,3,VALID,0.259375,
2009-09-29, 03:01:04,VALID,997.056,VALID,0,VALID,91.3494,VALID,0,VALID,21.5961,VALID,3,VALID,0.662109,
2009-09-29, 03:02:04,VALID,997.049,VALID,0,VALID,91.2197,VALID,0,VALID,21.5555,VALID,9,VALID,0.697266,
2009-09-29, 03:03:04,VALID,997.05,VALID,0,VALID,91.3571,VALID,0,VALID,21.5571,VALID,15,VALID,0.620313,
2009-09-29, 03:04:04,VALID,997.045,VALID,0,VALID,91.38,VALID,0.112286,VALID,21.5766,VALID,25,VALID,0.595703,
2009-09-29, 03:05:04,VALID,997.073,VALID,0,VALID,91.441,VALID,0,VALID,21.536,VALID,40,VALID,0.896875,
2009-09-29, 03:06:04,VALID,997.061,VALID,0,VALID,92.059,VALID,0,VALID,21.5945,VALID,55,VALID,0.692578,
2009-09-29, 03:07:04,VALID,997.081,VALID,0,VALID,92.3031,VALID,0,VALID,21.692,VALID,83,VALID,0.625781,
2009-09-29, 03:08:04,VALID,997.095,VALID,0,VALID,91.8301,VALID,0,VALID,21.7521,VALID,84,VALID,0.415625,
2009-09-29, 03:09:04,VALID,997.068,VALID,0,VALID,91.9903,VALID,0,VALID,21.8106,VALID,115,VALID,0.725781,
2009-09-29, 03:10:04,VALID,997.098,VALID,0,VALID,92.5778,VALID,0,VALID,21.9277,VALID,120,VALID,0.930859,
2009-09-29, 03:11:04,VALID,997.072,VALID,0,VALID,92.7762,VALID,0,VALID,22.1617,VALID,131,VALID,1.2,
2009-09-29, 03:12:04,VALID,997.07,VALID,0,VALID,92.4176,VALID,0,VALID,22.3551,VALID,130,VALID,1.66562,
2009-09-29, 03:13:04,VALID,997.051,VALID,0,VALID,91.6546,VALID,0,VALID,22.5892,VALID,124,VALID,1.63555,
2009-09-29, 03:14:04,VALID,997.019,VALID,0,VALID,90.3194,VALID,0,VALID,22.8427,VALID,124,VALID,1.48516,
2009-09-29, 03:15:04,VALID,997.034,VALID,0,VALID,89.1063,VALID,0,VALID,23.0378,VALID,125,VALID,1.70391,
2009-09-29, 03:16:04,VALID,997.028,VALID,0,VALID,88.0077,VALID,0,VALID,23.1939,VALID,127,VALID,1.68594,
2009-09-29, 03:17:04,VALID,997.016,VALID,0,VALID,87.0845,VALID,0,VALID,23.3518,VALID,134,VALID,1.46445,
2009-09-29, 03:18:04,VALID,997.042,VALID,0,VALID,86.5123,VALID,0,VALID,23.4493,VALID,145,VALID,1.21797,
2009-09-29, 03:19:04,VALID,997,VALID,0,VALID,86.2147,VALID,0,VALID,23.5079,VALID,138,VALID,1.35742,
2009-09-29, 03:20:04,VALID,997.002,VALID,0,VALID,85.7569,VALID,0,VALID,23.5664,VALID,128,VALID,1.16016,
2009-09-29, 03:21:04,VALID,996.997,VALID,0,VALID,85.612,VALID,0,VALID,23.6036,VALID,132,VALID,1.07734,
2009-09-29, 03:22:04,VALID,996.989,VALID,0,VALID,85.406,VALID,0,VALID,23.6427,VALID,125,VALID,1.10078,
2009-09-29, 03:23:04,VALID,996.971,VALID,0,VALID,85.1618,VALID,0,VALID,23.664,VALID,119,VALID,0.803125,
2009-09-29, 03:24:04,VALID,996.968,VALID,0,VALID,85.2992,VALID,0,VALID,23.625,VALID,133,VALID,0.959375,
2009-09-29, 03:25:04,VALID,996.98,VALID,0,VALID,84.788,VALID,0,VALID,23.5841,VALID,129,VALID,0.328516,
2009-09-29, 03:26:04,VALID,996.998,VALID,0,VALID,84.6812,VALID,0,VALID,23.4671,VALID,129,VALID,0.209375,
2009-09-29, 03:27:04,VALID,997.014,VALID,0,VALID,85.116,VALID,0,VALID,23.35,VALID,129,VALID,0.096875,
2009-09-29, 03:28:04,VALID,997.03,VALID,0,VALID,85.4899,VALID,0,VALID,23.3127,VALID,127,VALID,0.666797,
2009-09-29, 03:29:04,VALID,997.012,VALID,0,VALID,85.2534,VALID,0,VALID,23.2134,VALID,137,VALID,0.466797,
2009-09-29, 03:30:04,VALID,997.025,VALID,0,VALID,85.9019,VALID,0,VALID,23.1354,VALID,103,VALID,0.330078,
2009-09-29, 03:31:04,VALID,997.026,VALID,0,VALID,87.1455,VALID,0,VALID,23.1159,VALID,131,VALID,0.982813,
2009-09-29, 03:32:04,VALID,997.016,VALID,0,VALID,86.764,VALID,0,VALID,23.1744,VALID,117,VALID,0.775,
2009-09-29, 03:33:04,VALID,997.026,VALID,0,VALID,85.8409,VALID,0,VALID,23.1549,VALID,111,VALID,0.280859,
2009-09-29, 03:34:04,VALID,997.014,VALID,0,VALID,85.5204,VALID,0,VALID,23.0964,VALID,104,VALID,0.298828,
2009-09-29, 03:35:04,VALID,997.013,VALID,0,VALID,85.4136,VALID,0,VALID,22.9598,VALID,94,VALID,0.232422,
2009-09-29, 03:36:04,VALID,997.025,VALID,0,VALID,86.0087,VALID,0,VALID,22.8427,VALID,94,VALID,0.246484,
2009-09-29, 03:37:04,VALID,997.039,VALID,0,VALID,87.176,VALID,0,VALID,22.7452,VALID,94,VALID,0.108203,
2009-09-29, 03:38:04,VALID,997.055,VALID,0,VALID,87.7559,VALID,0,VALID,22.7274,VALID,94,VALID,0,
2009-09-29, 03:39:04,VALID,997.032,VALID,0,VALID,87.4736,VALID,0,VALID,22.7062,VALID,94,VALID,0,
2009-09-29, 03:40:04,VALID,997.002,VALID,0,VALID,88.1832,VALID,0,VALID,22.6884,VALID,94,VALID,0.316016,
2009-09-29, 03:41:04,VALID,996.997,VALID,0,VALID,88.0534,VALID,0,VALID,22.6884,VALID,94,VALID,0.359766,
2009-09-29, 03:42:04,VALID,996.953,VALID,0,VALID,87.1837,VALID,0,VALID,22.5696,VALID,94,VALID,0.562109,
2009-09-29, 03:43:04,VALID,996.948,VALID,0,VALID,88.7554,VALID,0,VALID,22.5714,VALID,94,VALID,0.530859,
2009-09-29, 03:44:04,VALID,997.003,VALID,0,VALID,88.6638,VALID,0,VALID,22.5892,VALID,93,VALID,0.503906,
2009-09-29, 03:45:04,VALID,997.013,VALID,0,VALID,89.0071,VALID,0,VALID,22.5892,VALID,93,VALID,0.380859,
2009-09-29, 03:46:04,VALID,997.015,VALID,0,VALID,88.5265,VALID,0,VALID,22.6282,VALID,93,VALID,0.425781,